Notices

What's New in latest Release from April 7th, 2021:

- Updated Glossary, including Speed of Maximum Gust, and Total Hourly Precipitation

- Updated national and regional climate services offices contacts and prices information

- Addition of station inventory lists for 1981-2010, 1971-2000, and 1961-1990 Normals.

If you haven't already, please take our survey and provide feedback about our website: https://eccc.sondage-survey.ca/f/LanguageSelection.aspx?s=442ca660-fcf1-47c0-95a9-59707d6fd709

Hourly Data Report for September 14, 2004

SHERBROOKE A
QUEBEC

45°26'00.000" N
71°41'00.000" W
241.40 m
7028124
71610
YSC

Download Data

Hourly Data (September 2004)
Hourly Data Report for September 14, 2004
TIME
LST
Temp Definition
°C
Dew Point Definition
°C
Rel Hum Definition
%
Precip. Amount Definition
mm

Wind Dir Definition
10's deg

Wind Spd Definition
km/h
Visibility Definition
km
Stn Press Definition
kPa
Hmdx Definition


Wind Chill Definition


Weather Definition


00:00 5.7 4.6 93   9 9 15.0 99.89      
01:00 5.2 4.2 93   8 9 15.0 99.88      
02:00 4.5 3.5 93   7 7 15.0 99.87      
03:00 4.0 3.0 93   10 6 15.0 99.90      
04:00 3.6 2.5 93   10 6 15.0 99.91      
05:00 4.1 3.0 93   10 9 15.0 99.91      
06:00 4.7 3.4 91   9 13 15.0 99.92      
07:00 7.0 4.9 86   9 7 24.1 99.90     Mainly Clear
08:00 10.8 7.1 78   9 4 24.1 99.96     Mainly Clear
09:00 13.8 8.3 69     0 24.1 99.98     Mainly Clear
10:00 16.2 8.6 61     0 24.1 99.98     Clear
11:00 18.0 9.2 56   17 6 24.1 99.94     Mainly Clear
12:00 19.7 8.8 49   19 7 24.1 99.88     Mainly Clear
13:00 20.6 9.0 47   20 6 24.1 99.80     Mainly Clear
14:00 20.8 8.0 44   19 13 24.1 99.74     Mainly Clear
15:00 21.4 9.1 45   21 13 24.1 99.67     Mainly Clear
16:00 21.2 8.9 45   20 9 24.1 99.63     Mainly Clear
17:00 20.2 9.5 50   20 6 15.0 99.62      
18:00 16.4 11.0 70   19 6 15.0 99.61      
19:00 15.0 10.2 73   16 9 15.0 99.62      
20:00 12.5 9.6 82   14 4 15.0 99.65      
21:00 12.4 9.3 81   9 6 15.0 99.64      
22:00 10.8 9.1 89     0 15.0 99.62      
23:00 10.9 8.8 87   11 7 15.0 99.61      

Notes on Data Quality.

Legend

  • E = Estimated
  • M = Missing
  • NA = Not Available*
  • [empty] = Indicates an unobserved value
Date modified: